Hourly Data Report for October 04, 2017

All times are specified in Local Standard Time (LST). Add 1 hour to adjust for Daylight Saving Time where and when it is observed.

GRAND ETANG
NOVA SCOTIA

46°33'00.000" N
61°03'00.000" W
12.80 m
8201969
73030
WZQ

Related Data

No related data is available for this station

Download Data

Hourly Data (October 2017)
Hourly Data Report for October 4, 2017
Temp Definition
°C
Dew Point Temp Definition
°C
Rel Hum Definition
%
Wind Dir Definition
10's deg

Wind Spd Definition
km/h
Visibility Definition
km
Stn Press Definition
kPa
Hmdx Definition


Wind Chill Definition


Weather Definition


TIME
00:00 9.9 7.1 82 19 13   102.60     LegendNANA
01:00 12.3 8.3 77 22 24   102.54     LegendNANA
02:00 12.3 9.1 81 22 27   102.45     LegendNANA
03:00 11.1 8.7 85 21 16   102.38     LegendNANA
04:00 11.2 9.4 89 18 16   102.31     LegendNANA
05:00 11.5 10.0 91 18 17   102.20     LegendNANA
06:00 11.8 10.1 90 18 18   102.10     LegendNANA
07:00 12.0 10.4 90 19 18   102.08     LegendNANA
08:00 12.7 11.8 94 20 16   102.03     LegendNANA
09:00 13.6 12.3 92 22 26   101.98     LegendNANA
10:00 13.7 11.9 89 22 25   101.94     LegendNANA
11:00 14.5 12.0 85 22 23   101.87     LegendNANA
12:00 14.8 12.3 85 22 24   101.81     LegendNANA
13:00 16.5 14.0 85 21 21   101.67     LegendNANA
14:00 16.7 13.3 81 21 23   101.60     LegendNANA
15:00 16.8 13.1 79 20 27   101.52     LegendNANA
16:00 16.6 13.2 80 19 22   101.47     LegendNANA
17:00 17.0 13.9 82 19 20   101.42     LegendNANA
18:00 16.5 12.3 76 18 20   101.34     LegendNANA
19:00 17.0 13.1 78 18 19   101.25     LegendNANA
20:00 17.3 12.8 75 18 18   101.20     LegendNANA
21:00 18.0 11.9 68 17 22   101.16     LegendNANA
22:00 17.6 13.4 76 18 14   101.12     LegendNANA
23:00 17.3 13.8 80 18 13   101.07     LegendNANA

Notes on Data Quality.

Legend

  • E = Estimated
  • M = Missing
  • NA = Not Available
  • ‡ = Partner data that is not subject to review by the National Climate Archives
Date modified: